Location: Azul
(36.7830°S, 59.8500°W)
Time: 18:49:32
(UTC-03:00)

BUGSAT 1 - Pass Details

Date: 31 October 2021
Orbit: 558 x 600 km, 98.1° (Epoch: 06 December)

Event Time Altitude Azimuth Distance (km) Brightness Sun altitude
Rises 04:41:53 0° 28° (NNE) 2,815 ? -14.2°
Reaches altitude 10° 04:44:04 10° 33° (NNE) 1,929 ? -13.8°
Maximum altitude 04:48:06 47° 107° (ESE) 801 ? -13.1°
Drops below altitude 10° 04:52:13 10° 180° (S) 1,973 ? -12.3°
Sets 04:54:29 0° 186° (S) 2,887 ? -12.0°
